Home > Weather > Tarlac City > Past weeks

Flag for Philippines Weather for the Past 2 Weeks in Tarlac City, Philippines

Now
73 °F

Passing clouds.


Feels Like: 72 °F
Forecast: 73 / 89 °F
Wind: 6 mph from Northwest

Location: Clarkfield Pampanga International Airport

Current Time: Feb 11, 2016 at 2:08:49 AM

Latest Report: Feb 11, 2016 at 2:00 AM


Visibility: N/A

Pressure: 29.98 "Hg

Humidity: 89%

Dew point: 70 °F

Location of Tarlac CityLocation

Historic Weather in Tarlac City — Graph

°F

Tarlac City Temperature Yesterday

Maximum temperature yesterday: 86 °F (at 1:00 PM)
Minimum temperature yesterday: 73 °F (at 7:00 AM)
Average temperature yesterday: 79 °F

High & Low Weather Summary for the Past Weeks

 TemperatureHumidityPressure
High90 °F (Jan 30, 3:00 PM)94% (Jan 29, 10:00 PM)30.15 "Hg (Jan 29, 10:00 PM)
Low68 °F (Feb 8, 6:00 AM)55% (Jan 31, 2:00 PM)29.80 "Hg (Feb 5, 3:00 PM)
Average79 °F78%29.98 "Hg
* Reported Jan 27 1:00 AM — Feb 11 1:00 AM, Tarlac City, Weather by CustomWeather, © 2016

Note: Actual official high and low records may vary slightly from our data, if they occured in-between our weather recording intervals... More about our weather records

Advertising

Tarlac City Weather History for the Previous 24 Hours

 ConditionsComfort  
Time TempWeatherWind HumidityBarometerVisibility
1:00 AM
Thu, Feb 11
73 °FPassing clouds.6 mph89%29.98 "HgN/A
12:00 AM75 °FPassing clouds.8 mph89%30.01 "HgN/A
11:00 PM
Wed, Feb 10
75 °FPassing clouds.7 mph89%30.01 "HgN/A
10:00 PM77 °FPassing clouds.3 mph79%30.01 "HgN/A
9:00 PM77 °FPassing clouds.2 mph79%30.01 "HgN/A
8:00 PM77 °FPassing clouds.3 mph89%29.98 "HgN/A
7:00 PM81 °FPassing clouds.2 mph74%29.98 "HgN/A
6:00 PM84 °FPassing clouds.5 mph70%29.98 "HgN/A
5:00 PM84 °FBroken clouds.8 mph66%29.95 "HgN/A
4:00 PM86 °FBroken clouds.10 mph66%29.92 "HgN/A
3:00 PM86 °FBroken clouds.8 mph66%29.92 "HgN/A
2:00 PM86 °FBroken clouds.9 mph66%29.95 "HgN/A
1:00 PM86 °FBroken clouds.10 mph66%29.95 "HgN/A
12:00 PM82 °FBroken clouds.6 mph74%29.98 "HgN/A
11:00 AM82 °FBroken clouds.5 mph74%30.01 "HgN/A
10:00 AM81 °FPartly sunny.6 mph79%30.01 "HgN/A
9:00 AM79 °FBroken clouds.6 mph84%30.01 "HgN/A
8:00 AM73 °FBroken clouds.5 mph94%30.01 "HgN/A
7:00 AM73 °FSprinkles. More clouds than sun.6 mph89%30.01 "Hg6 mi
6:00 AM75 °FSprinkles. Mostly cloudy.5 mph83%29.98 "HgN/A
5:00 AM75 °FPassing clouds.7 mph83%29.95 "HgN/A
4:00 AM75 °FPassing clouds.8 mph83%29.95 "HgN/A
3:00 AM75 °FPassing clouds.8 mph83%29.95 "HgN/A
2:00 AM75 °FPassing clouds.7 mph83%29.95 "HgN/A
Weather by CustomWeather, © 2016

See weather overviewHow to use our weather pages